This demonstration page uses our WeatherBlox Daily Observations layout. Learn more.

Left ArrowRight Arrow

39.01783, -85.05884

Hourly Observations for April 15, 2019

Temp ( °F °C ) Dew Point ( °F °C ) Humidity (%) Winds ( mph kmh ) Pressure ( in mb ) Visibility ( mi km ) Precip ( " mm )
12:11 am 00:11 Cloudy with Light Rain 39 3.9 33 0.6 79 79 W 29 46 29.74 1007 10 16 N/A
12:52 am 00:52 Cloudy 37 2.8 32 undefined 82 82 W 23 37 29.73 1007 10 16 N/A
1:52 am 01:52 Cloudy 37 2.8 31 -0.6 79 79 W 20 31 29.75 1008 10 16 N/A
2:52 am 02:52 Cloudy 37 2.8 31 -0.6 79 79 W 15 24 29.78 1008 10 16 N/A
3:52 am 03:52 Cloudy 37 2.8 31 -0.6 79 79 W 15 24 29.79 1009 10 16 N/A
4:11 am 04:11 Cloudy 37 2.8 31 -0.6 79 79 W 15 24 29.85 1011 10 16 N/A
4:52 am 04:52 Cloudy 37 2.8 30 -1.1 76 76 W 15 24 29.82 1010 10 16 N/A
5:52 am 05:52 Cloudy 37 2.8 30 -1.1 76 76 W 15 24 29.84 1011 10 16 N/A
6:52 am 06:52 Cloudy 37 2.8 29 -1.7 73 73 W 17 28 29.89 1012 10 16 N/A
7:52 am 07:52 Cloudy 37 2.8 29 -1.7 73 73 W 17 28 29.94 1014 10 16 N/A
8:52 am 08:52 Cloudy 37 2.8 29 -1.7 73 73 WNW 17 28 29.99 1016 10 16 N/A
9:41 am 09:41 Cloudy 39 3.9 30 -1.1 70 70 W 13 20 30.04 1017 10 16 N/A
9:52 am 09:52 Cloudy 39 3.9 30 -1.1 70 70 W 14 22 30.02 1017 10 16 N/A
10:17 am 10:17 Cloudy 38 3.3 30 -1.1 73 73 WNW 14 22 30.06 1018 10 16 N/A
10:52 am 10:52 Cloudy 41 5 30 -1.1 65 65 WNW 12 19 30.05 1018 10 16 N/A
11:38 am 11:38 Mostly Cloudy 43 6.1 32 undefined 65 65 W 13 20 30.09 1019 10 16 N/A
11:52 am 11:52 Mostly Cloudy 41 5 30 -1.1 65 65 WNW 13 20 30.08 1019 10 16 N/A
12:25 pm 12:25 Mostly Cloudy 44 6.7 32 undefined 63 63 W 12 19 30.10 1019 10 16 N/A
12:52 pm 12:52 Mostly Cloudy 46 7.8 32 undefined 58 58 W 12 19 30.09 1019 10 16 N/A
1:52 pm 13:52 Cloudy 47 8.3 33 0.6 59 59 W 9 15 30.10 1019 10 16 N/A
2:52 pm 14:52 Mostly Cloudy 49 9.4 33 0.6 55 55 VRB 7 11 30.11 1020 10 16 N/A
3:34 pm 15:34 Mostly Cloudy 49 9.4 33 0.6 55 55 W 8 13 30.11 1020 10 16 N/A
3:52 pm 15:52 Mostly Cloudy 49 9.4 33 0.6 55 55 W 8 13 30.10 1019 10 16 N/A
4:52 pm 16:52 Mostly Sunny 53 11.7 34 1.1 48 48 VRB 7 11 30.10 1019 10 16 N/A
5:52 pm 17:52 Mostly Sunny 53 11.7 34 1.1 48 48 SW 9 15 30.10 1019 10 16 N/A
6:52 pm 18:52 Mostly Sunny 52 11.1 32 undefined 47 47 WSW 9 15 30.11 1020 10 16 N/A
7:52 pm 19:52 Mostly Sunny 50 10 33 0.6 52 52 SSW 8 13 30.12 1020 10 16 N/A
8:52 pm 20:52 Clear 46 7.8 33 0.6 61 61 S 6 9 30.12 1020 10 16 N/A
9:52 pm 21:52 Clear 45 7.2 33 0.6 63 63 SSW 7 11 30.14 1021 10 16 N/A
10:52 pm 22:52 Mostly Clear 43 6.1 33 0.6 68 68 S 8 13 30.14 1021 10 16 N/A
11:52 pm 23:52 Clear 42 5.6 33 0.6 71 71 S 6 9 30.14 1021 10 16 N/A

Powered by AerisWeather